Location: Peach Mountain Observatory
(42.3967°N, 83.9367°W)
Time: 07:32:07
(UTC-04:00)

deb Explorer IX - Pass Details

Date: 24 January 2020
Orbit: 547 x 1100 km, 38.8° (Epoch: 06 April)

Event Time Altitude Azimuth Distance (km) Brightness Sun altitude
Rises 23:16:22 0° 247° (WSW) 3,795 - -59.7°
Reaches altitude 10° 23:19:04 10° 243° (WSW) 2,888 - -60.1°
Maximum altitude 23:26:04 58° 167° (SSE) 1,263 - -61.0°
Drops below altitude 10° 23:33:11 10° 90° (E) 2,923 - -61.8°
Sets 23:35:55 0° 87° (E) 3,844 - -62.2°
